#timestamp,LO_Frequency,Hit,StdDev 
1697104815.3,286046999.4,N
1697104835.2,286046997.2,N
1697104855.9,286046997.6,N
1697104875.7,286046997.5,N
1697104895.6,286046998.0,N
1697104915.4,286046995.0,Y
1697104935.2,286046997.3,P
1697104955.1,286046997.6,P
1697104956.0,286046997.6,P
1697104975.8,286046995.3,Y
1697104995.7,286046999.2,P
1697105015.5,286046997.3,P
1697105035.3,286046997.8,N
1697105055.2,286046997.7,Y
1697105075.0,286046998.6,P
1697105075.9,286046998.6,P
1697105095.8,286046998.3,P
1697105115.6,286046996.9,Y
1697105135.4,286046998.9,P
1697105155.3,286046997.0,P
1697105175.1,286046996.8,P
1697105195.8,286046994.9,Y
1697105215.7,286046999.4,P
1697105235.5,286046997.3,P
1697105255.4,286046996.9,P
1697105275.2,286046997.7,N
1697105295.0,286046997.1,Y
1697105295.9,286046997.1,P
1697105315.8,286046998.5,P
1697105335.6,286046998.1,P
1697105355.5,286046999.0,N
1697105375.3,286046998.6,N
1697105395.1,286046999.5,N
1697105415.9,286046997.1,Y
1697105435.7,286046998.7,P
1697105455.5,286046998.1,P
1697105475.4,286046999.6,N
1697105495.2,286046998.3,Y
1697105515.1,286046998.1,P
1697105516.0,286046998.1,P
1697105535.8,286046998.4,P
1697105555.6,286046999.1,Y
1697105575.5,286046998.9,P
1697105595.3,286046998.7,P
1697105615.2,286046998.9,P
1697105635.9,286046999.4,N
1697105655.7,286046999.1,N
1697105675.6,286046996.6,Y
1697105695.4,286046998.8,P
1697105715.2,286046998.9,P
1697105735.1,286046998.6,P
1697105736.0,286046998.6,Y
1697105755.8,286047001.0,P
1697105775.7,286046998.9,N
1697105795.5,286046998.8,N
1697105815.3,286046998.4,N
1697105835.2,286046999.5,N
1697105855.0,286046997.3,Y
1697105855.9,286046997.3,P
1697105875.8,286046999.1,N
1697105895.6,286046998.5,N
1697105915.4,286046998.8,N
1697105935.3,286046998.8,N
1697105955.1,286046999.0,N
1697105975.8,286046999.4,N
1697105995.7,286046996.6,Y
1697106015.5,286046998.8,P
1697106035.4,286046998.2,P
1697106055.2,286046999.1,P
1697106075.0,286046999.6,N
1697106075.9,286046999.6,N
1697106095.8,286046996.7,Y
1697106115.6,286046997.0,P
1697106135.5,286046999.6,N
1697106155.3,286046999.0,N
1697106175.1,286046998.4,N
1697106195.9,286046998.1,N
1697106215.7,286046998.9,N
1697106235.5,286046998.9,N
1697106255.4,286046999.5,N
1697106275.2,286046996.8,Y
1697106295.1,286046999.4,P
1697106296.0,286046999.4,N
1697106315.8,286046999.1,N
1697106335.6,286046999.6,N
1697106355.5,286046996.9,Y
1697106375.3,286046998.8,P
1697106395.1,286046998.7,P
1697106415.9,286046998.2,P
1697106435.7,286046998.6,Y
1697106455.6,286046999.9,P
1697106475.4,286047000.4,N
1697106495.2,286047000.4,N
1697106515.1,286047000.7,N
1697106516.0,286047000.7,N
1697106535.8,286047001.0,N
1697106555.7,286047000.7,N
1697106575.5,286047001.1,N
1697106595.3,286046998.7,N
1697106615.2,286047001.0,N
1697106635.0,286046998.2,N
1697106635.9,286046998.2,N
1697106655.7,286046998.4,N
1697106675.6,286046998.9,N
1697106695.4,286046998.3,N
1697106715.3,286046999.0,N
1697106735.1,286046999.5,N
1697106736.0,286046999.5,N
1697106755.8,286046999.4,N
1697106775.7,286046998.3,N
1697106795.5,286046999.1,N
1697106815.4,286046999.5,N
1697106835.2,286046999.3,N
1697106855.0,286046998.4,N
1697106855.9,286046998.4,N
1697106875.8,286046998.3,N
1697106895.6,286046999.1,N
1697106915.5,286046996.9,Y
1697106935.3,286046997.1,P
1697106955.1,286046997.8,N
1697106975.9,286046996.8,P
1697106995.7,286046997.4,N
1697107015.6,286046997.2,Y
1697107035.4,286047001.0,P
1697107055.2,286047001.0,N
1697107075.1,286047001.0,N
1697107076.0,286047001.0,N
1697107095.8,286046999.3,N
1697107115.6,286046998.2,N
1697107135.5,286047000.7,N
1697107155.3,286047000.5,N
1697107175.2,286046998.6,N
1697107195.9,286046998.6,N
1697107215.7,286046998.6,N
1697107235.6,286046998.1,N
1697107255.4,286046998.1,N
1697107275.3,286046998.6,N
1697107295.1,286046998.8,N
1697107296.0,286046998.8,N
1697107315.8,286047000.9,N
1697107335.7,286046998.7,N
1697107355.5,286047000.6,N
1697107375.3,286046998.2,N
1697107395.2,286046998.7,N
1697107415.0,286046998.9,N
1697107415.9,286046998.9,N
1697107435.8,286046999.2,N
1697107455.6,286046999.1,N
1697107475.4,286046998.5,N
1697107495.3,286046999.0,N
1697107515.1,286046997.1,N
1697107535.8,286046997.7,N
1697107555.7,286046996.8,N
1697107575.5,286046997.0,N
1697107595.4,286046999.4,N
1697107615.2,286046999.6,N
1697107635.0,286046999.0,N
1697107635.9,286046999.0,N
1697107655.8,286046996.6,Y
1697107675.6,286046998.5,P
1697107695.5,286046998.3,P
1697107715.3,286046998.1,P
1697107735.1,286046999.3,N
1697107755.9,286046997.0,Y
1697107775.7,286047001.0,P
1697107795.5,286047001.1,N
1697107815.4,286046999.8,N
1697107835.2,286046999.8,N
1697107855.1,286047002.3,N
1697107856.0,286047002.3,N
1697107875.8,286047002.7,N
1697107895.6,286047002.3,N
1697107915.5,286047002.5,N
1697107935.3,286047002.8,N
1697107955.2,286047002.1,N
1697107975.9,286047002.6,N
1697107995.7,286047002.3,N
1697108015.6,286047001.6,N
1697108035.4,286047002.6,N
1697108055.2,286047002.0,N
1697108075.1,286047001.3,N
1697108076.0,286047001.3,N
1697108095.8,286046999.7,N
1697108115.7,286047002.6,N
1697108135.5,286047002.4,N
1697108155.3,286047001.3,N
1697108175.2,286047003.9,Y
1697108195.0,286046999.7,P
1697108195.9,286046999.7,N
1697108215.8,286047000.0,N
1697108235.6,286047000.6,N
1697108255.4,286047000.5,N
1697108275.3,286046999.9,N
1697108295.1,286047000.2,N
1697108315.9,286047000.0,N
1697108335.7,286047001.0,N
1697108355.5,286047000.0,N
1697108375.4,286046999.9,N
1697108395.2,286047000.2,N
